OBJECT AL, 57200

Orbit data source: Space-Track

You're viewing an Uncataloged Satellite

Recently launched and/or uncataloged satellites may have evolving metadata. Metadata may include but not limited to: Owner, Maufacturer, Bus, Motor, and Mission.

OBJECT AL, 57200 is a satellite in SSO that was launched on Tue, 27 Jun 2023 UTC via a SOYUZ-2-1B launch vehicle from the Vostochny Cosmodrome (VOSTO). Unknown objects in Earth's orbit typically refer to objects detected orbiting the Earth but have not yet been identified or cataloged. These objects could be anything from previously untracked satellites, spent rocket stages, debris from satellite collisions, or even natural meteoroids temporarily captured by Earth's gravity.

Loading next visibility...
Identifier
57200, 2023-091AL
Orbit
SSO
Country
Flag of TBDTBD
Related business
None
Manufacturer
Unknown
Mission
Operational Civil Technology
Bus & Motor
Unknown
Mass
Unknown
Launch date (UTC)
2023-06-27 (2 years ago)
Launch vehicle
SOYUZ-2-1B
Launch site
Vostochny Cosmodrome (VOSTO)
Object type
Unknown
Shape & HBR
Box, 0.1 m
Radar Cross Section
0.080 m², Small (<0.1 m²)

Expand to show TLE details & history
Last TLE update: 8 hours ago

TLE from 8 hours ago
0 OBJECT AL
1 57200U 23091AL  25304.29416697  .00029894  00000-0  94299-3 0  9995
2 57200  97.5410   7.5383 0008720 148.8491 211.3269 15.32784298129791
Epoch: 2025-10-31T07:03Z
TLE epoch observation values (Epoch: 2025-10-31T07:03:36.026Z)
Latitude
-0.00002°
Longitude
-138.20247°
Altitude
475.715 km
Speed
7.625 km/s
True Right ascension
00h 30m 09s
True Declination
0° 00' 00"
Sunlit
Object was in full shadow at epoch
Visualization orbit readout
Latitude
Unknown
Longitude
Unknown
Altitude
Unknown
Speed
Unknown
Apparent Right ascension
Unknown
Apparent Declination
Unknown
Sunlit
N/A
Visualization observer readout
Local Sidereal Time
10:28:24
Azimuth
Unknown
Elevation
Unknown
Doppler factor
Unknown
Orbital elements
Apogee altitude
470.431 km
Perigee altitude
458.498 km
Semi-major axis
6,842.601 km
Eccentricity
0.00087
Inclination
97.541°
RAAN
7.5383°
Arg. of periapsis
148.8491°
True anomaly
211.275°
Mean anomaly
211.3269°
Eccentric anomaly
211.30094°
Mean motion
3.83452 °/min
Orbital period
93.88 mins
BSTAR
0.00094299
Loading maneuver chart data...
Computing Atmospheric mass density...
Loading historical data...
Loading historical data...
Loading historical data...
Loading historical data...
Loading historical data...
Loading historical data...
Loading historical data...

Documentation

Showing up to 5 results
|